DW8343 Weather Reports


time (UTC)temp
C
wind
direction
speed
KPH
gust
KPH
rain 1hr
cm
rain 24hr
cm
rain mn
cm
humidity
%
barometer
mb
20260504185825 27 195 3.2 12.9 0.00 0.00 0.00 49 1006.6
20260504185322 26 175 4.8 20.9 0.00 0.00 0.00 48 1006.9
20260504184818 26 303 6.4 17.7 0.00 0.00 0.00 49 1006.8
20260504184314 26 40 3.2 11.3 0.00 0.00 0.00 49 1007.1
20260504183809 26 247 6.4 12.9 0.00 0.00 0.00 49 1007.1
20260504183307 26 256 11.3 12.9 0.00 0.00 0.00 49 1007.2
20260504182805 26 175 3.2 12.9 0.00 0.00 0.00 49 1007.3
20260504182304 26 259 6.4 14.5 0.00 0.00 0.00 49 1007.3
20260504181759 26 50 3.2 12.9 0.00 0.00 0.00 49 1007.4
20260504181256 26 115 6.4 16.1 0.00 0.00 0.00 49 1007.2
20260504180755 26 228 9.7 16.1 0.00 0.00 0.00 48 1007.4
20260504180254 26 347 9.7 16.1 0.00 0.00 0.00 48 1007.4
20260504175751 25 332 6.4 12.9 0.00 0.00 0.00 49 1007.6
20260504175248 26 243 3.2 20.9 0.00 0.00 0.00 48 1007.7
20260504174745 26 38 4.8 17.7 0.00 0.00 0.00 48 1007.8
20260504174243 26 246 6.4 16.1 0.00 0.00 0.00 49 1008.0
20260504173739 26 97 9.7 17.7 0.00 0.00 0.00 47 1007.8
20260504173237 25 202 9.7 22.5 0.00 0.00 0.00 48 1008.1
20260504172733 26 250 6.4 14.5 0.00 0.00 0.00 47 1008.1
20260504172230 25 303 9.7 20.9 0.00 0.00 0.00 49 1007.9
20260504171726 25 336 6.4 14.5 0.00 0.00 0.00 48 1008.0
20260504171223 25 129 3.2 16.1 0.00 0.00 0.00 49 1008.2
20260504170720 25 172 6.4 9.7 0.00 0.00 0.00 48 1008.0
20260504170217 25 260 8.0 12.9 0.00 0.00 0.00 49 1008.1
20260504160136 23 108 9.7 20.9 0.00 0.00 0.00 49 1008.3
20260504151103 22 228 6.4 11.3 0.00 0.00 0.00 51 1008.7
20260504150601 22 275 4.8 14.5 0.00 0.00 0.00 52 1008.8
20260504141026 20 304 6.4 9.7 0.00 0.00 0.00 55 1009.2
20260504140523 20 299 8.0 12.9 0.00 0.00 0.00 55 1009.2
20260504130447 18 216 4.8 12.9 0.00 0.00 0.00 59 1009.4
20260504110334 17 263 1.6 9.7 0.00 0.00 0.00 58 1009.6
20260504100246 18 294 4.8 11.3 0.00 0.00 0.00 52 1010.1
20260504081639 19 230 4.8 11.3 0.00 0.00 0.00 47 1011.0
20260504081135 20 221 4.8 16.1 0.00 0.00 0.00 47 1011.0
20260504080632 20 221 4.8 16.1 0.00 0.00 0.00 47 1011.0
20260504080128 20 263 3.2 9.7 0.00 0.00 0.00 47 1011.0
20260504050445 21 153 4.8 16.1 0.00 0.00 0.00 43 1013.1
20260504045942 21 27 6.4 14.5 0.00 0.00 0.00 42 1013.1
20260504045437 21 256 9.7 14.5 0.00 0.00 0.00 42 1013.0
20260504044933 21 30 6.4 11.3 0.00 0.00 0.00 42 1013.1
20260504044431 21 258 4.8 9.7 0.00 0.00 0.00 42 1013.2
20260504043928 21 210 4.8 17.7 0.00 0.00 0.00 42 1013.1
20260504043425 21 247 6.4 11.3 0.00 0.00 0.00 42 1013.1
20260504042918 21 226 6.4 6.4 0.00 0.00 0.00 42 1013.1
20260504042414 21 249 8.0 12.9 0.00 0.00 0.00 42 1013.1
20260504041910 21 216 3.2 9.7 0.00 0.00 0.00 41 1013.1
20260504041406 21 231 6.4 14.5 0.00 0.00 0.00 41 1013.1
20260504040903 21 254 8.0 11.3 0.00 0.00 0.00 41 1013.3
20260504040400 21 238 3.2 20.9 0.00 0.00 0.00 41 1013.3
20260504035856 22 45 4.8 12.9 0.00 0.00 0.00 40 1013.2
20260504035354 22 209 3.2 11.3 0.00 0.00 0.00 40 1013.4
20260504034850 22 240 3.2 14.5 0.00 0.00 0.00 40 1013.4
20260504034348 22 155 3.2 12.9 0.00 0.00 0.00 40 1013.4
20260504033844 22 353 6.4 11.3 0.00 0.00 0.00 39 1013.4
20260504033343 22 166 6.4 11.3 0.00 0.00 0.00 40 1013.4
20260504032839 22 282 3.2 17.7 0.00 0.00 0.00 39 1013.5
20260504032336 22 127 4.8 14.5 0.00 0.00 0.00 39 1013.6
20260504031833 22 248 1.6 6.4 0.00 0.00 0.00 39 1013.4
20260504031330 22 203 6.4 16.1 0.00 0.00 0.00 39 1013.4
20260504030826 22 98 6.4 17.7 0.00 0.00 0.00 38 1013.5
20260504030324 22 108 3.2 14.5 0.00 0.00 0.00 39 1013.5
20260504025820 23 275 3.2 12.9 0.00 0.00 0.00 39 1013.5
20260504025317 23 138 4.8 14.5 0.00 0.00 0.00 38 1013.4
20260504024813 23 256 6.4 14.5 0.00 0.00 0.00 38 1013.4
20260504024310 23 277 3.2 11.3 0.00 0.00 0.00 38 1013.4
20260504023807 23 273 4.8 14.5 0.00 0.00 0.00 37 1013.3
20260504023304 23 62 8.0 16.1 0.00 0.00 0.00 38 1013.3
20260504022759 23 259 1.6 4.8 0.00 0.00 0.00 37 1013.3
20260504022256 23 91 6.4 11.3 0.00 0.00 0.00 37 1013.2
20260504021753 23 261 3.2 11.3 0.00 0.00 0.00 37 1013.3
20260504021250 23 254 3.2 11.3 0.00 0.00 0.00 36 1013.1
20260504020747 23 252 4.8 14.5 0.00 0.00 0.00 36 1013.0
20260504020243 23 323 1.6 4.8 0.00 0.00 0.00 37 1013.3
20260504015739 23 165 9.7 12.9 0.00 0.00 0.00 36 1013.1
20260504015236 23 72 6.4 11.3 0.00 0.00 0.00 35 1012.8
20260504014732 23 137 1.6 14.5 0.00 0.00 0.00 35 1012.8
20260504014229 24 149 3.2 6.4 0.00 0.00 0.00 35 1012.7
20260504013727 24 264 6.4 9.7 0.00 0.00 0.00 34 1012.8
20260504013224 24 291 4.8 16.1 0.00 0.00 0.00 34 1012.8
20260504012720 24 233 11.3 14.5 0.00 0.00 0.00 33 1012.8
20260504012218 24 320 4.8 16.1 0.00 0.00 0.00 33 1012.8
20260504011715 25 185 4.8 12.9 0.00 0.00 0.00 33 1012.6
20260504011212 25 239 6.4 9.7 0.00 0.00 0.00 32 1012.8
20260504010708 25 192 4.8 11.3 0.00 0.00 0.00 32 1013.0
20260504010203 25 193 3.2 12.9 0.00 0.00 0.00 31 1013.0
20260504005700 25 187 3.2 12.9 0.00 0.00 0.00 30 1013.1
20260504005157 25 290 1.6 9.7 0.00 0.00 0.00 31 1013.0
20260504004655 26 12 1.6 9.7 0.00 0.00 0.00 30 1013.0
20260504004152 26 262 11.3 20.9 0.00 0.00 0.00 30 1013.1
20260504003648 26 276 6.4 9.7 0.00 0.00 0.00 30 1012.6
20260504003145 26 270 3.2 20.9 0.00 0.00 0.00 30 1013.2
20260504002642 26 238 4.8 9.7 0.00 0.00 0.00 30 1013.0
20260504002139 26 215 6.4 14.5 0.00 0.00 0.00 29 1013.2
20260504001637 26 241 8.0 11.3 0.00 0.00 0.00 28 1013.0
20260504001133 27 275 8.0 16.1 0.00 0.00 0.00 28 1013.3
20260504000630 27 330 3.2 11.3 0.00 0.00 0.00 28 1013.3
20260504000128 27 330 6.4 11.3 0.00 0.00 0.00 28 1013.2
20260503235626 27 205 3.2 16.1 0.00 0.00 0.00 28 1013.3
20260503235122 27 45 1.6 11.3 0.00 0.00 0.00 28 1013.4
20260503234620 27 235 4.8 9.7 0.00 0.00 0.00 27 1013.5
20260503234118 27 249 4.8 22.5 0.00 0.00 0.00 26 1013.5
20260503233615 27 238 6.4 22.5 0.00 0.00 0.00 26 1013.8
20260503233110 27 265 4.8 6.4 0.00 0.00 0.00 26 1013.5
20260503232608 27 189 6.4 14.5 0.00 0.00 0.00 27 1013.5
20260503232105 28 212 1.6 14.5 0.00 0.00 0.00 27 1013.6
20260503231603 28 231 8.0 12.9 0.00 0.00 0.00 26 1013.5
20260503231059 27 210 14.5 22.5 0.00 0.00 0.00 26 1013.6
20260503230555 28 262 9.7 16.1 0.00 0.00 0.00 26 1013.7
20260503230052 28 206 14.5 22.5 0.00 0.00 0.00 25 1013.6
20260503225549 28 48 3.2 17.7 0.00 0.00 0.00 26 1013.6
20260503225044 28 149 6.4 11.3 0.00 0.00 0.00 25 1013.6
20260503224542 28 72 9.7 20.9 0.00 0.00 0.00 25 1013.6
20260503224040 28 244 8.0 12.9 0.00 0.00 0.00 25 1013.8
20260503223538 28 285 3.2 14.5 0.00 0.00 0.00 26 1013.7
20260503223033 28 143 3.2 14.5 0.00 0.00 0.00 27 1013.6
20260503222531 29 297 4.8 12.9 0.00 0.00 0.00 26 1013.7
20260503222029 28 117 4.8 11.3 0.00 0.00 0.00 26 1013.9
20260503221527 28 265 4.8 17.7 0.00 0.00 0.00 26 1013.9
20260503221024 29 136 8.0 12.9 0.00 0.00 0.00 26 1013.8
20260503220520 29 253 9.7 16.1 0.00 0.00 0.00 26 1014.0
20260503220017 29 221 12.9 20.9 0.00 0.00 0.00 27 1014.1
20260503215514 28 223 6.4 22.5 0.00 0.00 0.00 27 1014.2
20260503215011 29 220 6.4 16.1 0.00 0.00 0.00 27 1014.2
20260503214510 29 280 9.7 14.5 0.00 0.00 0.00 27 1013.9
20260503214006 29 21 1.6 14.5 0.00 0.00 0.00 27 1013.9
20260503213504 29 39 3.2 6.4 0.00 0.00 0.00 28 1014.3
20260503213000 29 176 9.7 16.1 0.00 0.00 0.00 26 1014.4
20260503212458 29 346 3.2 11.3 0.00 0.00 0.00 25 1014.7
20260503211955 30 203 6.4 14.5 0.00 0.00 0.00 24 1014.5
20260503211452 29 185 6.4 14.5 0.00 0.00 0.00 24 1014.6
20260503210948 30 299 6.4 12.9 0.00 0.00 0.00 24 1014.8
20260503210445 29 104 6.4 17.7 0.00 0.00 0.00 26 1014.8
20260503205939 29 172 6.4 12.9 0.00 0.00 0.00 26 1014.9
20260503205437 30 354 1.6 4.8 0.00 0.00 0.00 26 1014.8
20260503204933 30 253 6.4 12.9 0.00 0.00 0.00 24 1015.0
20260503204430 29 77 1.6 9.7 0.00 0.00 0.00 27 1015.0
20260503203927 29 202 6.4 12.9 0.00 0.00 0.00 25 1015.1
20260503203425 29 327 6.4 24.1 0.00 0.00 0.00 25 1015.2
20260503202921 29 249 6.4 12.9 0.00 0.00 0.00 25 1015.4
20260503202420 29 297 8.0 11.3 0.00 0.00 0.00 25 1015.4
20260503201918 29 279 4.8 17.7 0.00 0.00 0.00 26 1015.5
20260503201414 29 196 4.8 11.3 0.00 0.00 0.00 26 1015.3
20260503200912 28 227 8.0 14.5 0.00 0.00 0.00 27 1015.7
20260503200408 29 347 6.4 12.9 0.00 0.00 0.00 28 1015.8
20260503195905 29 174 6.4 14.5 0.00 0.00 0.00 27 1015.9
20260503195402 29 146 9.7 24.1 0.00 0.00 0.00 26 1015.9
20260503194859 29 241 4.8 9.7 0.00 0.00 0.00 26 1015.7
20260503194355 29 265 9.7 22.5 0.00 0.00 0.00 25 1016.3
20260503193851 29 230 9.7 12.9 0.00 0.00 0.00 25 1016.2
20260503193347 29 239 3.2 12.9 0.00 0.00 0.00 25 1016.1
20260503192843 29 196 6.4 14.5 0.00 0.00 0.00 23 1016.6
20260503192338 29 251 9.7 12.9 0.00 0.00 0.00 23 1016.4
20260503191835 28 229 8.0 12.9 0.00 0.00 0.00 23 1016.5
20260503191332 28 271 3.2 9.7 0.00 0.00 0.00 25 1016.7
20260503190829 28 249 6.4 14.5 0.00 0.00 0.00 24 1016.9
20260503190326 28 335 3.2 14.5 0.00 0.00 0.00 28 1016.6